FENGYUN 1C DEB, 31284

Orbit data source: Space-Track

FENGYUN 1C DEB, 31284 is space debris in SSO originally from a launch on Mon, 10 May 1999 UTC launched from the Taiyaun Space Center, China (TSC). Fengyun 1C debris stems from the Chinese weather satellite Fengyun-1C, which was intentionally destroyed by a Chinese anti-satellite missile in 2007. This event dramatically increased the amount of space debris, with thousands of trackable fragments posing hazards to satellites and human spaceflight. The Fengyun 1C debris cloud has become a focal point in discussions about space sustainability and the need for international regulations to prevent the creation of new debris.

Loading next visibility...
Identifier
31284, 1999-025BNS
Orbit
SSO
Country
Flag of CNCN / PRC
Related business
Manufacturer
Unknown
Mission
Spacecraft
Bus & Motor
Unknown
Mass
Unknown
Launch date (UTC)
1999-05-10 (27 years ago)
Launch vehicle
Unknown
Launch site
Taiyaun Space Center, China (TSC)
Object type
Payload
Rocket body
Debris
Shape & HBR
Unknown shape, 0.1 m
Radar Cross Section
Small (<0.1 m²)

Expand to show TLE details & history
Last TLE update: 2 days ago

TLE from 2 days ago
0 FENGYUN 1C DEB
1 31284U 99025BNS 26060.52015408  .00001227  00000-0  82217-3 0  9997
2 31284  99.7171 164.5335 0143688 206.0479 153.3402 13.98090695962633
Epoch: 2026-03-01T12:29Z
TLE epoch observation values (Epoch: 2026-03-01T12:29:01.312Z)
Latitude
-0.00006°
Longitude
177.9513°
Altitude
997.045 km
Speed
7.306 km/s
True Right ascension
10h 58m 08s
True Declination
0° 00' 00"
Sunlit
Object was in full shadow at epoch
Visualization orbit readout
Latitude
Unknown
Longitude
Unknown
Altitude
Unknown
Speed
Unknown
Apparent Right ascension
Unknown
Apparent Declination
Unknown
Sunlit
N/A
Visualization observer readout
Local Sidereal Time
18:33:53
Azimuth
Unknown
Elevation
Unknown
Doppler factor
Unknown
Orbital elements
Apogee altitude
1,002.196 km
Perigee altitude
793.107 km
Semi-major axis
7,275.789 km
Eccentricity
0.01437
Inclination
99.7171°
RAAN
164.5335°
Arg. of periapsis
206.0479°
True anomaly
154.06729°
Mean anomaly
153.3402°
Eccentric anomaly
153.7049°
Mean motion
3.49722 °/min
Orbital period
102.94 mins
BSTAR
0.00082217
Loading maneuver chart data...
Computing Atmospheric mass density...
Loading historical data...
Loading historical data...
Loading historical data...
Loading historical data...
Loading historical data...
Loading historical data...
Loading historical data...

Documentation

Showing up to 5 results
|